SCP
0 0 0 0 0 0 0 0 0 0 0 0 0 0 0 0 0 0 0 0 0 0 0 0 0 0 0 0 0 0 0 0 0 0 0 0 0 0 0 0 0 0 0
0 0 0 0 0 0 0 0 0 0 0 0 0 0 0 0 0 0 0 0 0 0 0 0 0 0 0 0 0 0 0 0 0 0 0 0 0 0 0 0 -0 -0 -0
0 0 0 0 0 0 0 0 0 0 0 0 0 0 0 0 0 0 0 0 0 0 0 0 0 0 0 0 0 0 0 0 0 0 0 0 0 0 -0 -0 -0 -0 -0
0 0 0 0 0 0 0 0 0 0 0 0 0 0 0 0 0 0 0 0 0 0 0 0 0 0 0 0 0 0 0 0 0 0 0 0 -0 -0 -0 -0 -0 -0 -0
0 0 0 0 0 0 0 0 0 0 0 0 0 0 0 0 0 0 0 0 0 0 0 0 0 0 0 0 0 0 0 0 0 0 0 0 0 -0 -0 -0 -0 -0 -0
0 0 0 0 0 0 0 0 0 0 0 0 0 0 0 0 0 0 0 0 0 0 0 0 0 0 0 0 0 0 0 0 0 0 0 0 0 0 0 -0 -0 -0 -0
0 0 0 0 0 0 0 0 0 0 0 0 0 0 0 0 0 0 0 0 0 0 0 0 0 0 0 0 0 0 0 0 0 0 0 0 0 0 0 0 0 0 0
0 0 0 0 0 0 0 0 0 0 0 0 0 0 0 0 0 0 0 0 0 0 0 0 0 0 0 0 0 0 0 0 0 0 0 0 0 0 0 0 0 0 0
0 0 0 0 0 0 0 0 0 0 0 0 0 0 0 0 0 0 0 0 0 0 0 0 0 0 0 0 0 0 0 0 0 0 0 0 0 0 0 0 0 0 0
0 0 0 0 0 0 0 0 0 0 0 0 0 0 0 0 0 0 0 0 0 0 0 0 0 0 0 0 0 0 0 0 0 0 0 0 0 0 0 0 0 0 0
0 -0 -0 -0 0 0 0 0 0 0 0 0 0 0 0 0 0 0 0 0 0 0 0 0 0 0 0 0 0 0 0 0 0 0 0 0 0 0 0 0 0 0 0
0 0 0 -0 0 0 -0 0 0 0 0 0 0 0 0 0 0 0 0 0 0 0 0 0 0 0 0 0 0 0 0 0 0 0 0 0 0 0 0 0 0 0 0
-0 0 -0 0 0 0 0 0 0 0 0 0 0 0 0 0 0 0 0 0 0 0 0 0 0 0 0 0 0 0 0 0 0 0 0 0 0 0 0 0 0 0 0
-0 -0 -0 -0 -0 0 0 0 0 0 0 0 0 0 0 0 0 0 0 0 0 0 0 0 0 0 0 0 0 0 0 0 0 0 0 0 0 0 0 0 0 0 0
-0 -0 -0 -0 -0 -0 0 0 0 0 0 0 0 0 0 0 0 0 0 0 0 0 0 0 0 0 0 0 0 0 0 0 0 0 0 0 0 0 0 0 0 0 0
-0 -0 -0 -0 -0 -0 -0 0 0 0 0 0 0 0 0 0 0 0 0 0 0 0 0 0 0 0 0 0 0 0 0 0 0 0 0 0 0 0 0 0 0 0 0
0 0 0 -0 -0 -0 0 0 0 0 0 0 0 0 0 0 0 0 0 0 0 0 0 0 0 0 0 0 0 0 0 0 0 0 0 0 0 0 0 0 0 0 0
0 0 0 0 0 0 0 0 0 0 0 0 0 0 0 0 0 0 -0 0 0 0 0 0 0 0 0 0 0 0 0 0 0 0 0 0 0 0 0 0 0 0 0
0 0 0 0 0 0 0 0 0 0 0 0 0 0 0 0 0 -0 -0 0 0 0 0 0 0 0 0 0 0 0 0 0 0 0 0 0 0 0 0 0 0 0 0
0 0 0 0 0 0 0 0 0 0 0 0 0 0 0 0 0 0 0 0 0 0 0 0 0 0 0 0 0 0 0 0 0 0 0 0 0 0 0 0 0 0 0
0 0 0 0 0 0 0 0 0 0 0 0 0 0 0 0 0 0 0 0 0 0 0 0 0 0 0 0 0 0 0 0 0 0 0 0 0 0 0 0 0 0 0
0 0 0 0 0 0 0 0 0 0 0 0 0 0 0 0 0 0 0 0 0 0 0 0 0 0 0 0 0 0 0 0 0 0 0 0 0 0 0 0 0 0 0
0 0 0 0 0 0 0 0 0 0 0 0 0 0 0 0 0 0 0 0 0 0 0 0 0 0 0 0 0 0 0 0 0 0 0 0 0 0 0 0 0 0 0
-0 -0 -0 0 0 0 0 0 0 0 0 0 0 0 0 0 0 0 0 0 0 0 0 0 0 0 0 0 0 0 0 0 0 0 0 0 0 0 0 0 0 0 0
0 0 0 0 0 0 0 0 0 0 0 0 0 0 0 0 0 0 0 0 0 0 0 0 0 0 0 0 0 0 0 0 0 0 0 0 0 0 0 0 0 0 0
-0 -0 0 0 0 0 0 0 0 0 0 0 0 0 0 0 0 0 0 0 0 0 0 0 0 0 0 0 0 0 0 0 0 0 0 0 0 0 0 0 0 0 0
Wind_Speed_500mb
63 64 65 65 69 81 88 89 94 96 96 93 92 92 92 96 99 98 95 90 87 84 82 78 71 64 57 52 48 45 43 43 40 39 36 32 35 42 47 54 59 59 62
48 57 66 75 85 90 95 92 90 101 103 98 95 97 95 96 103 105 102 98 95 92 89 85 78 73 65 57 52 47 46 46 43 39 40 39 39 45 51 57 65 70 71
46 45 52 58 67 81 90 97 95 99 104 106 106 104 102 102 106 109 107 104 99 95 92 89 83 77 69 60 55 52 49 45 43 43 42 41 44 50 55 62 69 73 77
56 58 59 58 61 64 68 80 91 97 102 109 109 107 106 107 107 108 112 110 102 99 97 93 86 79 71 63 57 53 49 44 43 43 39 42 47 51 60 68 73 73 80
72 67 70 68 62 63 67 63 78 89 94 101 103 110 110 111 113 113 114 112 107 107 102 96 90 82 74 66 62 56 49 46 45 40 38 40 47 51 57 64 72 79 82
81 76 73 69 63 61 64 59 66 78 88 96 102 107 110 117 119 113 113 114 112 112 108 102 94 86 80 72 65 58 53 47 43 45 39 40 42 47 51 59 67 76 81
78 80 73 72 67 60 57 63 70 74 76 85 97 105 113 114 120 117 114 116 115 115 111 103 96 89 82 75 67 60 56 48 50 45 40 37 41 38 47 53 59 68 75
81 77 76 76 76 67 60 55 62 68 80 79 85 97 103 111 113 116 114 115 115 115 111 106 98 92 85 78 68 61 53 50 43 37 36 33 35 35 42 49 56 68 75
86 82 81 82 87 80 66 64 56 60 70 81 78 83 95 104 105 111 113 119 117 117 111 105 98 91 80 73 72 65 56 49 40 35 37 29 26 29 34 45 51 62 77
93 92 86 81 78 80 78 62 60 57 60 71 71 81 88 94 98 103 113 120 117 114 111 106 97 91 79 80 76 65 59 48 39 35 31 25 27 29 31 40 50 58 62
100 98 93 90 80 74 70 72 62 60 56 60 67 78 81 89 92 97 106 116 110 111 110 107 100 91 81 77 70 63 53 40 37 35 28 23 26 31 34 37 42 53 59
110 111 107 97 98 80 70 65 71 67 55 57 64 67 73 80 76 81 87 103 102 106 105 101 97 85 83 75 63 56 48 43 40 33 25 24 28 30 34 40 44 51 56
112 114 116 110 100 97 75 69 69 73 65 56 61 64 76 72 64 74 82 88 91 88 91 99 88 85 77 65 56 48 50 45 35 30 26 26 28 31 35 40 46 52 59
116 120 115 114 109 93 94 72 72 78 74 75 67 65 68 68 68 77 86 82 70 77 84 81 76 71 63 66 65 58 47 43 36 29 28 27 28 32 35 39 48 57 70
117 118 118 111 106 95 87 83 75 75 78 78 84 71 65 69 71 77 92 101 99 88 79 78 79 84 82 72 66 57 51 44 35 30 26 28 29 34 36 41 49 59 69
109 111 110 102 96 91 80 86 81 73 72 73 83 80 70 64 64 60 84 97 101 90 80 90 93 89 84 81 69 61 50 39 32 28 26 27 31 34 41 46 50 59 71
97 94 94 90 89 83 70 77 79 74 66 67 72 69 68 61 60 50 70 88 79 79 86 95 97 89 83 71 62 57 45 37 33 30 27 26 32 37 43 50 55 61 72
84 83 82 81 78 78 73 70 75 74 71 62 68 60 62 57 48 52 57 86 81 85 93 87 88 89 77 66 64 52 43 38 32 28 25 26 30 37 45 53 60 65 71
79 81 79 83 82 75 71 67 75 70 67 64 63 57 58 54 44 45 63 98 95 102 92 79 86 75 66 64 57 50 41 35 31 27 24 26 29 36 44 55 63 64 69
78 78 76 74 73 71 66 56 70 69 64 59 64 56 62 54 56 66 79 87 91 97 87 81 78 67 64 60 54 44 37 31 28 26 25 27 29 33 43 55 62 67 68
69 68 63 65 64 61 53 59 61 61 58 56 58 51 62 69 60 66 74 88 95 89 78 74 71 69 63 55 45 37 32 28 25 24 25 26 28 34 41 53 62 66 70
58 62 62 60 58 48 46 51 55 49 47 46 47 45 49 60 60 76 90 87 82 85 70 62 65 56 48 40 33 29 26 23 22 24 24 26 30 34 44 55 62 66 75
50 47 48 44 37 39 42 41 37 36 36 39 41 45 62 66 65 79 82 76 71 60 57 56 51 48 40 33 28 24 20 20 22 23 24 27 30 37 46 55 63 71 78
35 33 30 26 18 15 17 21 24 28 37 46 50 55 57 58 61 66 68 68 59 55 51 48 44 37 30 27 23 21 19 20 21 23 27 30 32 39 48 58 66 71 78
26 23 18 12 8 5 8 16 25 32 40 43 46 46 45 52 55 60 57 47 50 47 44 38 31 27 24 21 18 17 19 21 23 25 27 32 36 42 51 60 69 72 78
24 20 16 12 8 4 4 11 17 23 28 33 39 37 36 45 50 49 45 46 43 39 32 29 27 23 18 14 15 18 19 22 22 24 27 33 36 44 53 64 70 72 78
Wind_Direction_500mb
298 290 279 275 267 258 254 254 253 251 248 246 244 240 236 234 234 233 234 234 233 234 235 236 238 242 246 250 251 253 258 259 261 266 276 288 300 310 314 316 316 319 317
312 303 293 287 281 272 266 263 260 254 250 248 245 242 240 236 234 234 233 232 232 233 234 234 236 238 240 243 247 251 253 257 263 275 286 296 307 315 320 322 325 328 324
325 310 303 299 293 282 273 268 265 257 253 249 245 242 241 238 235 234 235 235 233 234 235 235 235 236 239 240 245 246 250 254 263 273 286 299 315 321 325 328 328 327 328
339 332 314 304 302 297 286 275 271 263 258 253 249 246 242 240 238 235 235 234 232 233 234 233 233 235 238 240 241 244 244 250 262 271 288 306 317 322 327 329 325 325 325
347 343 334 314 297 291 285 281 277 271 266 258 253 250 245 240 238 235 235 234 233 232 231 231 231 231 233 235 237 239 241 247 257 271 288 300 310 323 326 326 322 325 323
342 341 340 336 312 289 284 280 273 273 269 263 257 253 248 246 241 236 234 234 232 232 231 229 228 228 230 233 237 237 240 244 256 266 274 298 309 317 319 321 324 326 328
327 331 332 335 334 322 297 283 271 269 267 265 260 255 252 248 242 238 234 233 232 231 229 228 227 227 228 229 231 235 239 242 250 263 281 296 301 310 313 317 323 320 318
328 323 323 326 329 332 325 301 288 278 268 260 257 256 253 249 243 240 236 234 232 231 229 228 227 227 227 228 228 228 231 238 247 262 278 281 290 308 321 319 318 313 311
325 324 322 320 320 324 325 322 303 285 275 264 259 255 251 248 243 239 236 234 229 228 226 226 225 225 225 227 225 224 227 232 242 254 264 285 303 302 309 308 309 310 314
323 323 321 320 312 310 316 315 309 294 279 270 264 259 253 247 244 238 235 233 227 225 223 223 223 223 221 224 224 223 226 228 232 245 256 274 287 293 301 303 307 308 312
323 319 318 315 314 308 303 303 301 294 288 274 265 257 253 247 241 235 232 234 229 225 222 220 219 217 217 221 224 225 227 226 233 242 251 269 283 294 301 300 301 304 308
320 319 316 312 308 303 302 300 296 286 283 274 261 257 252 245 238 228 215 231 227 225 223 224 220 217 216 217 219 222 220 225 232 237 247 265 279 293 297 300 306 307 308
315 313 311 308 305 303 298 294 290 283 274 270 261 253 246 240 231 218 208 221 230 223 226 226 220 215 215 211 208 204 212 227 230 235 250 265 280 290 296 304 308 310 308
307 307 305 304 303 301 297 284 283 278 273 264 256 252 248 242 231 217 206 213 218 228 223 217 211 206 199 208 198 210 215 222 230 240 255 269 280 288 298 306 311 316 314
303 301 299 299 298 298 291 288 278 276 272 270 267 260 253 250 239 223 213 202 212 220 214 209 200 201 204 206 212 213 217 219 227 238 256 271 283 294 304 311 316 318 317
297 295 295 295 292 290 287 283 281 277 279 271 267 261 259 261 257 244 221 205 213 216 208 207 205 205 203 208 204 208 210 216 228 242 255 271 287 300 310 315 318 319 319
293 292 290 289 289 288 285 278 274 282 275 273 262 252 257 252 251 243 222 203 210 205 208 206 206 204 208 205 204 208 209 215 227 240 254 271 290 302 311 317 323 323 322
292 289 288 286 284 285 283 272 267 274 277 275 254 243 236 239 233 235 207 195 197 201 207 209 207 210 208 199 201 204 209 218 227 240 257 273 288 302 312 321 325 326 325
293 289 286 285 286 283 280 264 264 270 269 266 256 243 227 223 212 214 199 194 194 197 202 208 213 210 201 198 201 203 208 217 228 240 256 271 288 303 312 322 325 325 326
295 293 293 290 287 283 276 260 253 263 263 257 252 244 223 205 203 204 199 196 199 203 200 206 210 202 195 200 202 203 210 219 230 242 256 274 288 302 314 323 325 326 330
300 301 301 294 288 283 268 258 258 260 258 253 248 240 223 217 205 197 193 201 201 203 208 206 197 192 196 200 202 205 211 219 230 246 261 277 294 304 316 323 325 327 331
307 307 305 299 295 283 266 262 261 259 254 246 238 229 207 209 197 195 198 201 203 211 205 196 189 188 195 199 205 209 216 225 241 256 269 289 299 310 320 325 327 329 329
312 310 309 308 297 275 265 261 258 250 238 229 222 206 199 200 200 200 199 197 202 197 189 180 182 189 193 200 210 220 231 242 253 273 279 289 303 316 322 326 329 328 328
326 321 317 315 302 272 252 241 231 222 209 201 194 195 198 196 196 194 190 183 185 185 175 181 184 187 196 208 218 229 240 255 270 278 285 298 308 315 322 329 328 326 327
346 343 338 332 321 278 224 202 193 188 187 189 188 189 185 180 177 172 174 183 184 175 179 181 184 194 206 218 232 250 260 264 272 283 289 299 302 318 327 324 324 327 327
13 15 20 21 24 43 141 169 170 173 178 180 180 173 167 166 168 173 176 170 168 175 178 188 194 201 211 231 252 263 265 270 278 284 282 294 309 317 319 319 324 325 326
Wind_Speed_850mb
63 64 65 65 69 81 88 89 94 96 96 93 92 92 92 96 99 98 95 90 87 84 82 78 71 64 57 52 48 45 43 43 40 39 36 32 35 42 47 54 59 59 62
48 57 66 75 85 90 95 92 90 101 103 98 95 97 95 96 103 105 102 98 95 92 89 85 78 73 65 57 52 47 46 46 43 39 40 39 39 45 51 57 65 70 71
46 45 52 58 67 81 90 97 95 99 104 106 106 104 102 102 106 109 107 104 99 95 92 89 83 77 69 60 55 52 49 45 43 43 42 41 44 50 55 62 69 73 77
56 58 59 58 61 64 68 80 91 97 102 109 109 107 106 107 107 108 112 110 102 99 97 93 86 79 71 63 57 53 49 44 43 43 39 42 47 51 60 68 73 73 80
72 67 70 68 62 63 67 63 78 89 94 101 103 110 110 111 113 113 114 112 107 107 102 96 90 82 74 66 62 56 49 46 45 40 38 40 47 51 57 64 72 79 82
81 76 73 69 63 61 64 59 66 78 88 96 102 107 110 117 119 113 113 114 112 112 108 102 94 86 80 72 65 58 53 47 43 45 39 40 42 47 51 59 67 76 81
78 80 73 72 67 60 57 63 70 74 76 85 97 105 113 114 120 117 114 116 115 115 111 103 96 89 82 75 67 60 56 48 50 45 40 37 41 38 47 53 59 68 75
81 77 76 76 76 67 60 55 62 68 80 79 85 97 103 111 113 116 114 115 115 115 111 106 98 92 85 78 68 61 53 50 43 37 36 33 35 35 42 49 56 68 75
86 82 81 82 87 80 66 64 56 60 70 81 78 83 95 104 105 111 113 119 117 117 111 105 98 91 80 73 72 65 56 49 40 35 37 29 26 29 34 45 51 62 77
93 92 86 81 78 80 78 62 60 57 60 71 71 81 88 94 98 103 113 120 117 114 111 106 97 91 79 80 76 65 59 48 39 35 31 25 27 29 31 40 50 58 62
100 98 93 90 80 74 70 72 62 60 56 60 67 78 81 89 92 97 106 116 110 111 110 107 100 91 81 77 70 63 53 40 37 35 28 23 26 31 34 37 42 53 59
110 111 107 97 98 80 70 65 71 67 55 57 64 67 73 80 76 81 87 103 102 106 105 101 97 85 83 75 63 56 48 43 40 33 25 24 28 30 34 40 44 51 56
112 114 116 110 100 97 75 69 69 73 65 56 61 64 76 72 64 74 82 88 91 88 91 99 88 85 77 65 56 48 50 45 35 30 26 26 28 31 35 40 46 52 59
116 120 115 114 109 93 94 72 72 78 74 75 67 65 68 68 68 77 86 82 70 77 84 81 76 71 63 66 65 58 47 43 36 29 28 27 28 32 35 39 48 57 70
117 118 118 111 106 95 87 83 75 75 78 78 84 71 65 69 71 77 92 101 99 88 79 78 79 84 82 72 66 57 51 44 35 30 26 28 29 34 36 41 49 59 69
109 111 110 102 96 91 80 86 81 73 72 73 83 80 70 64 64 60 84 97 101 90 80 90 93 89 84 81 69 61 50 39 32 28 26 27 31 34 41 46 50 59 71
97 94 94 90 89 83 70 77 79 74 66 67 72 69 68 61 60 50 70 88 79 79 86 95 97 89 83 71 62 57 45 37 33 30 27 26 32 37 43 50 55 61 72
84 83 82 81 78 78 73 70 75 74 71 62 68 60 62 57 48 52 57 86 81 85 93 87 88 89 77 66 64 52 43 38 32 28 25 26 30 37 45 53 60 65 71
79 81 79 83 82 75 71 67 75 70 67 64 63 57 58 54 44 45 63 98 95 102 92 79 86 75 66 64 57 50 41 35 31 27 24 26 29 36 44 55 63 64 69
78 78 76 74 73 71 66 56 70 69 64 59 64 56 62 54 56 66 79 87 91 97 87 81 78 67 64 60 54 44 37 31 28 26 25 27 29 33 43 55 62 67 68
69 68 63 65 64 61 53 59 61 61 58 56 58 51 62 69 60 66 74 88 95 89 78 74 71 69 63 55 45 37 32 28 25 24 25 26 28 34 41 53 62 66 70
58 62 62 60 58 48 46 51 55 49 47 46 47 45 49 60 60 76 90 87 82 85 70 62 65 56 48 40 33 29 26 23 22 24 24 26 30 34 44 55 62 66 75
50 47 48 44 37 39 42 41 37 36 36 39 41 45 62 66 65 79 82 76 71 60 57 56 51 48 40 33 28 24 20 20 22 23 24 27 30 37 46 55 63 71 78
35 33 30 26 18 15 17 21 24 28 37 46 50 55 57 58 61 66 68 68 59 55 51 48 44 37 30 27 23 21 19 20 21 23 27 30 32 39 48 58 66 71 78
26 23 18 12 8 5 8 16 25 32 40 43 46 46 45 52 55 60 57 47 50 47 44 38 31 27 24 21 18 17 19 21 23 25 27 32 36 42 51 60 69 72 78
24 20 16 12 8 4 4 11 17 23 28 33 39 37 36 45 50 49 45 46 43 39 32 29 27 23 18 14 15 18 19 22 22 24 27 33 36 44 53 64 70 72 78
Wind_Direction_850mb
298 290 279 275 267 258 254 254 253 251 248 246 244 240 236 234 234 233 234 234 233 234 235 236 238 242 246 250 251 253 258 259 261 266 276 288 300 310 314 316 316 319 317
312 303 293 287 281 272 266 263 260 254 250 248 245 242 240 236 234 234 233 232 232 233 234 234 236 238 240 243 247 251 253 257 263 275 286 296 307 315 320 322 325 328 324
325 310 303 299 293 282 273 268 265 257 253 249 245 242 241 238 235 234 235 235 233 234 235 235 235 236 239 240 245 246 250 254 263 273 286 299 315 321 325 328 328 327 328
339 332 314 304 302 297 286 275 271 263 258 253 249 246 242 240 238 235 235 234 232 233 234 233 233 235 238 240 241 244 244 250 262 271 288 306 317 322 327 329 325 325 325
347 343 334 314 297 291 285 281 277 271 266 258 253 250 245 240 238 235 235 234 233 232 231 231 231 231 233 235 237 239 241 247 257 271 288 300 310 323 326 326 322 325 323
342 341 340 336 312 289 284 280 273 273 269 263 257 253 248 246 241 236 234 234 232 232 231 229 228 228 230 233 237 237 240 244 256 266 274 298 309 317 319 321 324 326 328
327 331 332 335 334 322 297 283 271 269 267 265 260 255 252 248 242 238 234 233 232 231 229 228 227 227 228 229 231 235 239 242 250 263 281 296 301 310 313 317 323 320 318
328 323 323 326 329 332 325 301 288 278 268 260 257 256 253 249 243 240 236 234 232 231 229 228 227 227 227 228 228 228 231 238 247 262 278 281 290 308 321 319 318 313 311
325 324 322 320 320 324 325 322 303 285 275 264 259 255 251 248 243 239 236 234 229 228 226 226 225 225 225 227 225 224 227 232 242 254 264 285 303 302 309 308 309 310 314
323 323 321 320 312 310 316 315 309 294 279 270 264 259 253 247 244 238 235 233 227 225 223 223 223 223 221 224 224 223 226 228 232 245 256 274 287 293 301 303 307 308 312
323 319 318 315 314 308 303 303 301 294 288 274 265 257 253 247 241 235 232 234 229 225 222 220 219 217 217 221 224 225 227 226 233 242 251 269 283 294 301 300 301 304 308
320 319 316 312 308 303 302 300 296 286 283 274 261 257 252 245 238 228 215 231 227 225 223 224 220 217 216 217 219 222 220 225 232 237 247 265 279 293 297 300 306 307 308
315 313 311 308 305 303 298 294 290 283 274 270 261 253 246 240 231 218 208 221 230 223 226 226 220 215 215 211 208 204 212 227 230 235 250 265 280 290 296 304 308 310 308
307 307 305 304 303 301 297 284 283 278 273 264 256 252 248 242 231 217 206 213 218 228 223 217 211 206 199 208 198 210 215 222 230 240 255 269 280 288 298 306 311 316 314
303 301 299 299 298 298 291 288 278 276 272 270 267 260 253 250 239 223 213 202 212 220 214 209 200 201 204 206 212 213 217 219 227 238 256 271 283 294 304 311 316 318 317
297 295 295 295 292 290 287 283 281 277 279 271 267 261 259 261 257 244 221 205 213 216 208 207 205 205 203 208 204 208 210 216 228 242 255 271 287 300 310 315 318 319 319
293 292 290 289 289 288 285 278 274 282 275 273 262 252 257 252 251 243 222 203 210 205 208 206 206 204 208 205 204 208 209 215 227 240 254 271 290 302 311 317 323 323 322
292 289 288 286 284 285 283 272 267 274 277 275 254 243 236 239 233 235 207 195 197 201 207 209 207 210 208 199 201 204 209 218 227 240 257 273 288 302 312 321 325 326 325
293 289 286 285 286 283 280 264 264 270 269 266 256 243 227 223 212 214 199 194 194 197 202 208 213 210 201 198 201 203 208 217 228 240 256 271 288 303 312 322 325 325 326
295 293 293 290 287 283 276 260 253 263 263 257 252 244 223 205 203 204 199 196 199 203 200 206 210 202 195 200 202 203 210 219 230 242 256 274 288 302 314 323 325 326 330
300 301 301 294 288 283 268 258 258 260 258 253 248 240 223 217 205 197 193 201 201 203 208 206 197 192 196 200 202 205 211 219 230 246 261 277 294 304 316 323 325 327 331
307 307 305 299 295 283 266 262 261 259 254 246 238 229 207 209 197 195 198 201 203 211 205 196 189 188 195 199 205 209 216 225 241 256 269 289 299 310 320 325 327 329 329
312 310 309 308 297 275 265 261 258 250 238 229 222 206 199 200 200 200 199 197 202 197 189 180 182 189 193 200 210 220 231 242 253 273 279 289 303 316 322 326 329 328 328
326 321 317 315 302 272 252 241 231 222 209 201 194 195 198 196 196 194 190 183 185 185 175 181 184 187 196 208 218 229 240 255 270 278 285 298 308 315 322 329 328 326 327
346 343 338 332 321 278 224 202 193 188 187 189 188 189 185 180 177 172 174 183 184 175 179 181 184 194 206 218 232 250 260 264 272 283 289 299 302 318 327 324 324 327 327
13 15 20 21 24 43 141 169 170 173 178 180 180 173 167 166 168 173 176 170 168 175 178 188 194 201 211 231 252 263 265 270 278 284 282 294 309 317 319 319 324 325 326